COSMOS 2516 (753)

Last updated on Jan. 18, 2020, 4:38 a.m. UTC

1 41554U 16032A   20017.57852734 -.00000002  00000-0  00000+0 0  9994
2 41554  64.1747 272.1775 0011536 221.9826 268.7053  2.13101811 28309
UTC
Height (km)
Latitude
Longitude
Inclination
Orbital Period
UTC large
Height (km)
Speed (km/s)
/
Latitude / Longitude
Inclination (degrees)
Orbital Period (minutes)
Azimuth
Elevation
Range (km)
Doppler Factor
iOS Compass Heading
iOS Angle

Next 30 passes for location: Hong Kong

Rise time Rise Azimuth (degrees) Set time Set Azimuth (degrees) Duration Max altitude (degrees)

No matching passes for this satellites